Regional Weather Roundup
Issued by NWS

Home | Current Version | Previous Version | Text Only | Print | Product List | Glossary On
Versions: 1 2 3 4 5 6 7 8 9 10 11 12 13 14 15 16 17 18 19 20 21 22 23 24 25 26 27 28 29 30 31 32 33 34 35 36 37 38 39 40 41 42 43 44 45 46 47 48 49 50
000
ASUS43 KOAX 192302
RWRNE

WEATHER ROUNDUP FOR NEBRASKA
NATIONAL WEATHER SERVICE OMAHA NE
600 PM CDT TUE AUG 19 2014

NOTES: SATELLITE DATA IS BEING USED TO AUGMENT CLOUD COVER ABOVE
       12000 FEET.
       "FAIR" INDICATES FEW OR NO CLOUDS BELOW 12,000 FEET WITH NO
       SIGNIFICANT WEATHER AND/OR OBSTRUCTIONS TO VISIBILITY.

  * THESE STATIONS DO NOT REPORT WEATHER SUCH AS RAIN...SNOW OR FOG.

NEZ001>004-019>022-054>056-200000-
NEBRASKA PANHANDLE

CITY           SKY/WX    TMP DP  RH WIND       PRES   REMARKS
SCOTTSBLUFF    PTSUNNY   85  52  32 S13       29.81R
ALLIANCE       PTSUNNY   93  52  24 S16G24    29.79F HX  90
CHADRON        MOSUNNY   96  39  13 VRB3      29.71F HX  91
KIMBALL        PTSUNNY   82  49  31 SW9       29.86R
SIDNEY         MOSUNNY   88  53  30 S13G23    29.84S
$$

NEZ057>060-069>072-079>082-200000-
SOUTHWEST NEBRASKA

CITY           SKY/WX    TMP DP  RH WIND       PRES   REMARKS
NORTH PLATTE   MOSUNNY   86  66  51 E17G24    29.77F
IMPERIAL       MOSUNNY   91  59  33 E14       29.77F HX  90
LEXINGTON      SUNNY     85  70  60 E12       29.79S
MCCOOK         SUNNY     93  63  36 E13       29.76F HX  94
OGALLALA       MOSUNNY   88  56  33 SE10      29.78S
$$

NEZ005>010-023>029-035>040-094-200000-
NORTH CENTRAL NEBRASKA

CITY           SKY/WX    TMP DP  RH WIND       PRES   REMARKS
VALENTINE      MOSUNNY   90  59  35 SE15      29.78F
AINSWORTH      MOSUNNY   83  63  49 S10       29.80S
BROKEN BOW     MOSUNNY   85  66  53 SE12      29.80F
O`NEILL        SUNNY     84  63  49 SE9       29.81R
ORD            MOSUNNY   85  66  53 S12       29.79F
THEDFORD       PTSUNNY   88  62  42 SE12      29.80F
$$

NEZ041-046>049-061>064-073>077-083>087-200000-
SOUTH CENTRAL NEBRASKA

CITY           SKY/WX    TMP DP  RH WIND       PRES   REMARKS
GRAND ISLAND   SUNNY     87  71  58 SE10      29.80F HX  93
AURORA         MOSUNNY   88  69  53 SE7       29.81S HX  92
HASTINGS       MOSUNNY   88  63  43 S10       29.80S
HEBRON         SUNNY     89  67  49 SE6       29.79S HX  92
HOLDREGE       SUNNY     88  65  46 SE9       29.79S
KEARNEY *      MOSUNNY   88  66  48 SE10      29.80F HX  90
$$

NEZ011>018-030>034-042>045-200000-
NORTHEAST NEBRASKA

CITY           SKY/WX    TMP DP  RH WIND       PRES   REMARKS
NORFOLK        SUNNY     86  66  51 SE9       29.79F
ALBION         SUNNY     83  65  52 SE10      29.82R
BLAIR          SUNNY     86  59  40 CALM      29.81S
COLUMBUS *     SUNNY     84  66  54 S7        29.81S
FREMONT        SUNNY     87  63  44 S5        29.81S
TEKAMAH        SUNNY     87  65  47 E3        29.79R
WAYNE          SUNNY     83  67  56 S3        29.80S
$$

NEZ050>053-065>068-078-088>093-200000-
SOUTHEAST NEBRASKA

CITY           SKY/WX    TMP DP  RH WIND       PRES   REMARKS
LINCOLN        SUNNY     90  66  45 NE9       29.79S HX  92
OMAHA EPPLEY   MOSUNNY   87  61  41 E9        29.79S
BEATRICE       SUNNY     90  71  52 S5        29.79S HX  96
FALLS CITY     SUNNY     89  74  60 E7        29.78F HX  98
NEBRASKA CITY  SUNNY     86  68  55 SE3       29.80F
PLATTSMOUTH    SUNNY     87  62  41 SE5       29.80F
$$

NEZ044-045-051>053-067-200000-
OMAHA AREA

CITY           SKY/WX    TMP DP  RH WIND       PRES   REMARKS
OMAHA EPPLEY   MOSUNNY   87  61  41 E9        29.79S
BLAIR          SUNNY     86  59  40 CALM      29.81S
FREMONT        SUNNY     87  63  44 S5        29.81S
MILLARD        SUNNY     88  65  45 S6        29.79R HX  90
OFFUTT AFB     SUNNY     87  68  53 SE5       29.79S HX  90
PLATTSMOUTH    SUNNY     87  62  41 SE5       29.80F
WAHOO          FAIR      87  61  41 E3        29.80S
$$



USA.gov is the U.S. government's official web portal to all federal, state and local government web resources and services.